Regional Weather Roundup
Issued by NWS

Home | Current Version | Previous Version | Text Only | Print | Product List | Glossary Off
Versions: 1 2 3 4 5 6 7 8 9 10 11 12 13 14 15 16 17 18 19 20 21 22 23 24 25 26 27 28

000
ASUS45 KSLC 211110
RWRUT

UTAH REGIONAL WEATHER ROUNDUP
NATIONAL WEATHER SERVICE SALT LAKE CITY UT
500 AM MDT THU SEP 21 2017

UTZ001>011-023>025-211200-

NORTHERN UTAH

CITY           SKY/WX    TMP DP  RH WIND       PRES   REMARKS
BRIGHAM CITY   CLOUDY    51  40  66 W7        29.74R
HILL AFB       PTCLDY    47  42  82 CALM      29.73R
LOGAN          CLOUDY    47  43  86 NW5       29.74F
OGDEN          MOCLDY    49  43  80 S5        29.72R
SALT LAKE CITY MOCLDY    53  43  68 NW9       29.73R
TOOELE VALLEY  CLOUDY    52  45  76 E3        29.74S
WENDOVER       CLOUDY    51  36  56 NW16G25   29.74R
HEBER CITY     CLOUDY    64  30  27 S10G37    29.69S
WEST JORDAN    MOCLDY    48  46  93 NW3       29.75S

$$

UTZ011>015-024>027-211200-

CENTRAL/NORTHEAST UTAH

CITY           SKY/WX    TMP DP  RH WIND       PRES   REMARKS
PROVO AIRPORT  PTCLDY    55  45  68 N10       29.70
MOAB/CANYONLAN CLEAR     71  32  23 S17       29.75S
DELTA          CLEAR     55  34  44 S8        29.70S
PRICE          CLEAR     58  33  39 SE5       29.80R
ROOSEVELT      CLEAR     50  36  57 W9        29.74S
VERNAL         CLEAR     60  34  37 SW9       29.72R

$$

UTZ013>016-019>022-027-211200-

SOUTHERN UTAH

CITY           SKY/WX    TMP DP  RH WIND       PRES   REMARKS
BRYCE CANYON   CLEAR     49  39  68 SE14      29.96F
CEDAR CITY     CLEAR     63  36  36 S32G46    29.72F
MILFORD        CLEAR     57  40  52 SW10      29.71S
ST GEORGE      MOSUNNY   72  39  30 SE20      29.68F
HANKSVILLE     CLEAR     70  34  26 SW14G25   29.79S
BLANDING         N/A     55  35  46 CALM      30.02S

$$

REGIONAL REPORTS     COLORADO/ARIZONA

CITY           SKY/WX    TMP DP  RH WIND       PRES   REMARKS
CRAIG, CO      CLEAR     58  31  35 SW10      29.81F
GRAND JUNCTION CLEAR     69  33  26 SE18      29.81R
RIFLE, CO      CLEAR     59  28  30 CALM      29.83R
MONTROSE, CO   CLEAR     63  31  30 E7        29.95R
CORTEZ, CO     CLEAR     48  35  60 E7        30.00S
PAGE, AZ       CLEAR     66  41  40 SE8       29.80F
GRAND CANYON   CLEAR     53  43  68 S10       29.99S
KINGMAN, AZ    CLEAR     69  37  30 S10       29.80S
FLAGSTAFF, AZ  CLEAR     52  37  56 SW16G24   30.05R

$$

REGIONAL REPORTS    NEVADA/IDAHO/WYOMING

CITY           SKY/WX    TMP DP  RH WIND       PRES   REMARKS
LAS VEGAS, NV  CLEAR     75  43  31 S18G28    29.61S
ELY, NY        CLOUDY    46  36  68 N9        29.76S
ELKO, NV       LGT RAIN  42  38  85 S9        29.80S
POCATELLO, ID  LGT RAIN  42  40  92 S6        29.78F
BURLEY, ID     LGT RAIN  44  43  96 NW6       29.76S
FORT BRIDGER,    N/A     42  36  78 NW8       29.79R
EVANSTON, WY   CLEAR     41  38  89 N3        29.75F
ROCK SPRINGS,  CLEAR     52  31  44 SE6       29.75R
KEMMERER, WY     N/A     36  34  93 NW3       29.77S

$$




USA.gov is the U.S. government's official web portal to all federal, state and local government web resources and services.